DAL4522 SAEZ-PAFA

Flight info

Callsign DAL4522
Flight time N/A
Altitude 30000
Route BIVA3A BIVAM UW8 ERE UT672 JUJ UM776 IQT UL300 ROLUS UN420 ILUBA UL333 PISAD L333 HRV J58 SPS J168 LAA J20 FQF J13 GTF J569 YXC YWL YYD DUXAR Q969 YXY J515 ORT J502 RDFLG HRDNG4
Aircraft B77L/H-SDE1E2E3FGHIJ2J3J4J5M1RWXY/LB1D1

Departure

Time N/A
Airport Ezeiza International Airport - Ministro Pistarini (SAEZ)

Arrival

Time 2026-04-20 02:10
Airport Fairbanks International Airport (PAFA)
Time Latitude Longitude Altitude Speed Heading
2026-04-20 00:52 60.30563 -134.60790 37816 ft 448 kts 315°
2026-04-20 00:53 60.32964 -134.64810 37810 ft 449 kts 315°
2026-04-20 00:53 60.37766 -134.72875 37804 ft 450 kts 315°
2026-04-20 00:54 60.42581 -134.80993 37784 ft 451 kts 315°
2026-04-20 00:54 60.47400 -134.89152 37747 ft 452 kts 315°
2026-04-20 00:55 60.52226 -134.97354 37734 ft 452 kts 315°
2026-04-20 00:55 60.57051 -135.05585 37703 ft 453 kts 315°
2026-04-20 00:56 60.61788 -135.14022 37696 ft 451 kts 310°
2026-04-20 00:56 60.65852 -135.23632 37705 ft 447 kts 304°
2026-04-20 00:57 60.69731 -135.33594 37699 ft 449 kts 304°
2026-04-20 00:57 60.73612 -135.43580 37731 ft 450 kts 304°
2026-04-20 00:58 60.77513 -135.53594 37729 ft 450 kts 304°
2026-04-20 00:58 60.81409 -135.63608 37770 ft 450 kts 304°
2026-04-20 00:59 60.85305 -135.73658 37779 ft 450 kts 304°
2026-04-20 00:59 60.89195 -135.83739 37779 ft 451 kts 303°
2026-04-20 01:00 60.93079 -135.93849 37770 ft 451 kts 303°
2026-04-20 01:00 60.96930 -136.03918 37764 ft 450 kts 303°
2026-04-20 01:01 61.00789 -136.14052 37774 ft 449 kts 303°
2026-04-20 01:01 61.04631 -136.24189 37771 ft 448 kts 303°
2026-04-20 01:02 61.08465 -136.34343 37760 ft 448 kts 303°
2026-04-20 01:02 61.12286 -136.44514 37750 ft 448 kts 303°
2026-04-20 01:03 61.16101 -136.54712 37755 ft 448 kts 303°
2026-04-20 01:03 61.19907 -136.64929 37744 ft 448 kts 302°
2026-04-20 01:04 61.23704 -136.75172 37740 ft 447 kts 302°
2026-04-20 01:04 61.27495 -136.85442 37726 ft 448 kts 302°
2026-04-20 01:05 61.31274 -136.95724 37731 ft 448 kts 302°
2026-04-20 01:05 61.35055 -137.06057 37713 ft 448 kts 302°
2026-04-20 01:06 61.38824 -137.16406 37708 ft 448 kts 302°
2026-04-20 01:06 61.42581 -137.26769 37717 ft 448 kts 301°
2026-04-20 01:07 61.46334 -137.37165 37716 ft 448 kts 301°
2026-04-20 01:07 61.50079 -137.47587 37722 ft 448 kts 301°
2026-04-20 01:08 61.53820 -137.58045 37704 ft 449 kts 301°
2026-04-20 01:08 61.57560 -137.68550 37709 ft 450 kts 301°
2026-04-20 01:09 61.61303 -137.79111 37709 ft 451 kts 301°
2026-04-20 01:09 61.65018 -137.89641 37716 ft 452 kts 301°
2026-04-20 01:10 61.68765 -138.00312 37711 ft 454 kts 301°
2026-04-20 01:10 61.74386 -138.16409 37709 ft 456 kts 300°
2026-04-20 01:11 61.78141 -138.27227 37713 ft 457 kts 300°
2026-04-20 01:11 61.81898 -138.38100 37690 ft 459 kts 300°
2026-04-20 01:12 61.85651 -138.49014 37707 ft 459 kts 300°
2026-04-20 01:12 61.89404 -138.59976 37702 ft 460 kts 300°
2026-04-20 01:13 61.93156 -138.70995 37692 ft 461 kts 300°
2026-04-20 01:13 61.96909 -138.82069 37688 ft 462 kts 300°
2026-04-20 01:14 62.00655 -138.93171 37689 ft 462 kts 300°
2026-04-20 01:14 62.04398 -139.04324 37690 ft 463 kts 300°
2026-04-20 01:15 62.08141 -139.15529 37677 ft 464 kts 300°
2026-04-20 01:15 62.11883 -139.26785 37664 ft 465 kts 300°
2026-04-20 01:16 62.15615 -139.38066 37667 ft 465 kts 300°
2026-04-20 01:16 62.19346 -139.49399 37665 ft 465 kts 299°
2026-04-20 01:17 62.23047 -139.60697 37645 ft 466 kts 299°
2026-04-20 01:17 62.26762 -139.72097 37658 ft 466 kts 299°
2026-04-20 01:18 62.30475 -139.83547 37654 ft 467 kts 299°
2026-04-20 01:18 62.34180 -139.95029 37648 ft 468 kts 299°
2026-04-20 01:19 62.37884 -140.06564 37647 ft 468 kts 299°
2026-04-20 01:19 62.41582 -140.18139 37631 ft 469 kts 299°
2026-04-20 01:20 62.45267 -140.29735 37633 ft 468 kts 298°
2026-04-20 01:20 62.48945 -140.41367 37628 ft 469 kts 298°
2026-04-20 01:21 62.52614 -140.53030 37624 ft 468 kts 298°
2026-04-20 01:21 62.56270 -140.64708 37624 ft 468 kts 298°
2026-04-20 01:22 62.59300 -140.74436 37628 ft 468 kts 298°
2026-04-20 01:22 62.62936 -140.86165 37624 ft 468 kts 298°
2026-04-20 01:23 62.66560 -140.97910 37629 ft 467 kts 298°
2026-04-20 01:23 62.70192 -141.09665 37618 ft 468 kts 298°
2026-04-20 01:24 62.73820 -141.21475 37624 ft 469 kts 298°
2026-04-20 01:24 62.77422 -141.33346 37617 ft 469 kts 297°
2026-04-20 01:25 62.81006 -141.45249 37615 ft 469 kts 297°
2026-04-20 01:25 62.84585 -141.57197 37616 ft 469 kts 297°
2026-04-20 01:26 62.88131 -141.69091 37604 ft 470 kts 297°
2026-04-20 01:26 62.91695 -141.81107 37611 ft 470 kts 297°
2026-04-20 01:27 62.95315 -141.93174 37617 ft 473 kts 300°
2026-04-20 01:27 62.99269 -142.04790 37615 ft 475 kts 301°
2026-04-20 01:28 63.03309 -142.16360 37620 ft 477 kts 301°
2026-04-20 01:28 63.07328 -142.27999 37619 ft 478 kts 301°
2026-04-20 01:29 63.11302 -142.39651 37620 ft 479 kts 301°
2026-04-20 01:29 63.15300 -142.51463 37587 ft 480 kts 300°
2026-04-20 01:30 63.19297 -142.63332 37574 ft 482 kts 300°
2026-04-20 01:30 63.23295 -142.75265 37555 ft 482 kts 300°
2026-04-20 01:31 63.27288 -142.87239 37544 ft 483 kts 300°
2026-04-20 01:31 63.31275 -142.99262 37533 ft 483 kts 300°
2026-04-20 01:32 63.35256 -143.11329 37540 ft 484 kts 300°
2026-04-20 01:32 63.39233 -143.23449 37548 ft 485 kts 300°
2026-04-20 01:33 63.43204 -143.35618 37562 ft 485 kts 300°
2026-04-20 01:33 63.47168 -143.47833 37573 ft 486 kts 300°
2026-04-20 01:34 63.51132 -143.60112 37584 ft 487 kts 299°
2026-04-20 01:34 63.55088 -143.72430 37586 ft 487 kts 299°
2026-04-20 01:35 63.59035 -143.84781 37579 ft 487 kts 299°
2026-04-20 01:35 63.62966 -143.97166 37574 ft 487 kts 299°
2026-04-20 01:36 63.66860 -144.09508 37574 ft 487 kts 299°
2026-04-20 01:36 63.69868 -144.19086 37576 ft 486 kts 299°
2026-04-20 01:40 63.71234 -144.23448 37582 ft 486 kts 299°
2026-04-20 01:40 63.75126 -144.35926 37579 ft 486 kts 299°
2026-04-20 01:41 63.79005 -144.48424 37572 ft 480 kts 299°
2026-04-20 01:41 63.80915 -144.54594 37018 ft 479 kts 299°
2026-04-20 01:41 63.82817 -144.60765 36391 ft 475 kts 298°
2026-04-20 01:42 63.84700 -144.66887 35691 ft 472 kts 298°
2026-04-20 01:42 63.86567 -144.72983 34937 ft 471 kts 298°
2026-04-20 01:42 63.88436 -144.79107 34112 ft 472 kts 297°
2026-04-20 01:42 63.90304 -144.85245 33204 ft 472 kts 297°
2026-04-20 01:43 63.92173 -144.91397 32208 ft 473 kts 297°
2026-04-20 01:43 63.94036 -144.97546 31261 ft 471 kts 297°
2026-04-20 01:43 63.95884 -145.03654 30564 ft 466 kts 297°
2026-04-20 01:43 63.97709 -145.09694 29907 ft 459 kts 297°
2026-04-20 01:44 63.99503 -145.15647 29216 ft 453 kts 297°
2026-04-20 01:44 64.01270 -145.21534 28516 ft 446 kts 297°
2026-04-20 01:44 64.03006 -145.27334 27866 ft 439 kts 297°
2026-04-20 01:44 64.04712 -145.33053 27245 ft 432 kts 297°
2026-04-20 01:45 64.06368 -145.38619 26636 ft 427 kts 297°
2026-04-20 01:45 64.08022 -145.44196 26020 ft 422 kts 297°
2026-04-20 01:45 64.09655 -145.49718 25411 ft 417 kts 298°
2026-04-20 01:45 64.11270 -145.55190 24832 ft 413 kts 298°
2026-04-20 01:46 64.12868 -145.60618 24243 ft 409 kts 298°
2026-04-20 01:46 64.14446 -145.65991 23682 ft 405 kts 298°
2026-04-20 01:46 64.16012 -145.71332 23126 ft 402 kts 298°
2026-04-20 01:46 64.17567 -145.76651 22458 ft 399 kts 298°
2026-04-20 01:47 64.19102 -145.81909 21870 ft 395 kts 299°
2026-04-20 01:47 64.20620 -145.87122 21317 ft 390 kts 299°
2026-04-20 01:47 64.22118 -145.92280 20758 ft 386 kts 299°
2026-04-20 01:47 64.23602 -145.97400 20215 ft 383 kts 300°
2026-04-20 01:48 64.25069 -146.02473 19675 ft 379 kts 300°
2026-04-20 01:48 64.26521 -146.07504 19133 ft 376 kts 300°
2026-04-20 01:48 64.27961 -146.12503 18612 ft 373 kts 300°
2026-04-20 01:48 64.29390 -146.17478 18058 ft 372 kts 301°
2026-04-20 01:49 64.30816 -146.22488 17472 ft 376 kts 300°
2026-04-20 01:49 64.32224 -146.27587 17084 ft 377 kts 300°
2026-04-20 01:49 64.33612 -146.32683 16801 ft 373 kts 300°
2026-04-20 01:49 64.34986 -146.37748 16237 ft 372 kts 300°
2026-04-20 01:50 64.36349 -146.42780 15701 ft 368 kts 300°
2026-04-20 01:50 64.37695 -146.47751 15164 ft 363 kts 300°
2026-04-20 01:50 64.39024 -146.52659 14631 ft 358 kts 300°
2026-04-20 01:50 64.40338 -146.57519 14099 ft 353 kts 300°
2026-04-20 01:51 64.41629 -146.62304 13585 ft 349 kts 300°
2026-04-20 01:51 64.42903 -146.67038 13031 ft 344 kts 300°
2026-04-20 01:51 64.44156 -146.71697 12487 ft 339 kts 299°
2026-04-20 01:51 64.45371 -146.76227 12016 ft 332 kts 299°
2026-04-20 01:52 64.46561 -146.80663 11664 ft 307 kts 299°
2026-04-20 01:52 64.47621 -146.84605 11507 ft 271 kts 298°
2026-04-20 01:52 64.48579 -146.88189 11434 ft 254 kts 298°
2026-04-20 01:52 64.49489 -146.91611 11337 ft 246 kts 298°
2026-04-20 01:53 64.50391 -146.95020 11242 ft 252 kts 298°
2026-04-20 01:53 64.51324 -146.98553 11143 ft 260 kts 298°
2026-04-20 01:53 64.52271 -147.02138 11032 ft 259 kts 298°
2026-04-20 01:53 64.53209 -147.05685 10759 ft 257 kts 298°
2026-04-20 01:54 64.54134 -147.09186 10466 ft 252 kts 298°
2026-04-20 01:54 64.55040 -147.12619 10179 ft 247 kts 298°
2026-04-20 01:54 64.55932 -147.16005 9906 ft 245 kts 298°
2026-04-20 01:54 64.56826 -147.19412 9617 ft 250 kts 298°
2026-04-20 01:55 64.57743 -147.22911 9311 ft 256 kts 298°
2026-04-20 01:55 64.58675 -147.26463 8985 ft 257 kts 298°
2026-04-20 01:55 64.59598 -147.29980 8680 ft 252 kts 297°
2026-04-20 01:55 64.60498 -147.33417 8406 ft 245 kts 297°
2026-04-20 01:56 64.61363 -147.36725 8302 ft 233 kts 297°
2026-04-20 01:56 64.62183 -147.39867 8170 ft 221 kts 296°
2026-04-20 01:56 64.63044 -147.42705 8085 ft 216 kts 314°
2026-04-20 01:56 64.64437 -147.44379 7880 ft 239 kts 338°
2026-04-20 01:57 64.66100 -147.45296 7642 ft 249 kts 343°
2026-04-20 01:57 64.67802 -147.46081 7355 ft 250 kts 343°
2026-04-20 01:57 64.69502 -147.46880 7067 ft 248 kts 343°
2026-04-20 01:57 64.71179 -147.47694 6794 ft 245 kts 342°
2026-04-20 01:58 64.72834 -147.48511 6607 ft 240 kts 342°
2026-04-20 01:58 64.74444 -147.49307 6492 ft 234 kts 343°
2026-04-20 01:58 64.76087 -147.49323 6341 ft 242 kts
2026-04-20 01:58 64.77752 -147.48523 6238 ft 248 kts
2026-04-20 01:59 64.79426 -147.47612 6090 ft 251 kts
2026-04-20 01:59 64.81117 -147.46639 5924 ft 248 kts
2026-04-20 01:59 64.82772 -147.45660 5772 ft 243 kts 10°
2026-04-20 01:59 64.84385 -147.44680 5693 ft 238 kts 11°
2026-04-20 02:00 64.86004 -147.43688 5554 ft 243 kts 11°
2026-04-20 02:00 64.87643 -147.42635 5405 ft 244 kts 13°
2026-04-20 02:00 64.89266 -147.41535 5243 ft 242 kts 14°
2026-04-20 02:00 64.90870 -147.40395 5095 ft 240 kts 15°
2026-04-20 02:01 64.92453 -147.39221 4919 ft 235 kts 16°
2026-04-20 02:01 64.93967 -147.38042 4768 ft 222 kts 18°
2026-04-20 02:01 64.95394 -147.36856 4600 ft 216 kts 20°
2026-04-20 02:01 64.96800 -147.35624 4463 ft 215 kts 21°
2026-04-20 02:02 64.98194 -147.34358 4336 ft 213 kts 21°
2026-04-20 02:02 64.99597 -147.33433 4204 ft 209 kts
2026-04-20 02:02 65.00924 -147.34403 4219 ft 198 kts 320°
2026-04-20 02:02 65.01778 -147.36843 4233 ft 193 kts 298°
2026-04-20 02:03 65.02470 -147.39587 4214 ft 195 kts 297°
2026-04-20 02:03 65.03041 -147.42443 4198 ft 189 kts 276°
2026-04-20 02:03 65.02826 -147.45346 4191 ft 178 kts 234°
2026-04-20 02:03 65.02004 -147.47464 4229 ft 178 kts 223°
2026-04-20 02:04 65.01117 -147.49561 4219 ft 181 kts 221°
2026-04-20 02:04 65.00180 -147.51542 4207 ft 179 kts 218°
2026-04-20 02:04 64.99227 -147.53409 4204 ft 177 kts 217°
2026-04-20 02:04 64.98270 -147.55229 4214 ft 176 kts 217°
2026-04-20 02:05 64.97308 -147.57034 4201 ft 177 kts 217°
2026-04-20 02:05 64.96339 -147.58841 4032 ft 178 kts 217°
2026-04-20 02:05 64.95397 -147.60594 3746 ft 165 kts 217°
2026-04-20 02:05 64.94554 -147.62164 3543 ft 150 kts 216°
2026-04-20 02:06 64.93774 -147.63617 3357 ft 141 kts 216°
2026-04-20 02:06 64.93005 -147.65042 3167 ft 143 kts 216°
2026-04-20 02:06 64.92215 -147.66509 2962 ft 143 kts 216°
2026-04-20 02:06 64.91440 -147.67948 2767 ft 145 kts 215°
2026-04-20 02:07 64.90639 -147.69426 2545 ft 147 kts 216°
2026-04-20 02:07 64.89837 -147.70914 2348 ft 147 kts 216°
2026-04-20 02:07 64.89030 -147.72409 2139 ft 148 kts 217°
2026-04-20 02:07 64.88221 -147.73905 1901 ft 148 kts 218°
2026-04-20 02:08 64.87411 -147.75406 1680 ft 148 kts 218°
2026-04-20 02:08 64.86601 -147.76905 1467 ft 148 kts 219°
2026-04-20 02:08 64.85791 -147.78399 1262 ft 148 kts 219°
2026-04-20 02:08 64.84985 -147.79889 1051 ft 148 kts 220°
2026-04-20 02:09 64.84176 -147.81381 847 ft 147 kts 219°
2026-04-20 02:09 64.83368 -147.82838 655 ft 147 kts 220°
2026-04-20 02:09 64.82579 -147.84327 476 ft 144 kts 220°
2026-04-20 02:09 64.81852 -147.85679 452 ft 106 kts 218°
2026-04-20 02:10 64.81430 -147.86454 451 ft 52 kts 218°
2026-04-20 02:10 64.81224 -147.86841 451 ft 32 kts 218°
2026-04-20 02:10 64.81187 -147.87075 452 ft 10 kts 304°
2026-04-20 02:10 64.81248 -147.87102 451 ft 10 kts 34°
2026-04-20 02:11 64.81317 -147.86986 451 ft 17 kts 37°
2026-04-20 02:11 64.81410 -147.86813 451 ft 17 kts 38°
2026-04-20 02:11 64.81522 -147.86756 451 ft 17 kts 10°
2026-04-20 02:11 64.81590 -147.86670 451 ft 16 kts 35°
2026-04-20 02:12 64.81659 -147.86705 449 ft 9 kts 312°